Погода в Белой Кринице

Украина / Ровненская область     50°36′17″N   26°23′12″E
темп.,
°C
ветер,
м/с
пор.,
м/с
влажн.,
%
обл.,
%
осадки,
мм/ч
давл.,
гПа
погр.,
м
23 октября, сб
сб2300:00+8зюз613655 0.0 1013508
03:00+8зюз713585 0.0 1013557
06:00+7з7145592 0.0 1014755
09:00+7з8136498 0.0 10161285
12:00+9зсз811505 0.0 10181517
15:00+9зсз8105171 0.0 10191741
18:00+7зсз6115898 0.0 10201122
21:00+6з6116297 0.0 1022876
24 октября, вс
вс2400:00+4з5127439 0.0 1023392
03:00+3з6128329 0.0 1024455
06:00+3зсз5118916 0.0 1026444
09:00+2зсз5119186 0.0 1028528
12:00+7сз796096 0.0 10291387
15:00+7сз685197 0.0 10301634
18:00+7сз5850100 0.0 1030593
21:00+4зсз366455 0.0 1032126
25 октября, пн
пн2500:00+3сз227173 0.0 103315
03:00+1з22785 0.0 103310
06:00+1зюз11825 0.0 103310
09:00+2ююв22755 0.0 103433
12:00+7ююв34535 0.0 1033570
15:00+10ююв45415 0.0 1031867
18:00+6ююв34525 0.0 103050
21:00+4ююв38585 0.0 1030140
26 октября, вт
вт2600:00+3ююв412625 0.0 1030237
03:00+2ююв412645 0.0 1029248
06:00+1ююв411675 0.0 1028224
09:00+2ююв514635 0.0 1027313
12:00+9ю69415 0.0 1026635
15:00+12ю67340 0.0 1024955
18:00+8ю3346100 0.0 102440
21:00+6ю3951100 0.0 1024160
27 октября, ср
ср2700:00+6ю3753100 0.0 1024138
03:00+5ююз3556100 0.0 102384
06:00+4з2260100 0.0 102320
09:00+4з3465100 0.0 102478
12:00+9зсз46524 0.0 1024513
15:00+12зсз46486 0.0 1023827
18:00+9зсз34675 0.0 102450
21:00+7зсз35815 0.0 102670